Regional Weather Roundup
Issued by NWS

Home | Current Version | Previous Version | Graphics & Text | Print | Product List | Glossary On
Versions: 1 2 3 4 5 6 7 8 9 10 11 12 13 14 15 16 17 18 19 20 21 22 23 24 25 26 27
000
ASUS45 KSLC 260210
RWRUT

UTAH REGIONAL WEATHER ROUNDUP
NATIONAL WEATHER SERVICE SALT LAKE CITY UT
800 PM MDT TUE APR 25 2017

UTZ001>011-023>025-260300-

NORTHERN UTAH

CITY           SKY/WX    TMP DP  RH WIND       PRES   REMARKS
BRIGHAM CITY   MOCLDY    51  33  48 SW6       29.88S
HILL AFB       PTCLDY    46  35  65 SW6       29.90R
LOGAN          PTCLDY    50  37  61 CALM      29.88S
OGDEN          PTCLDY    47  35  63 SW5       29.89S
SALT LAKE CITY MOCLDY    50  37  61 CALM      29.90S
TOOELE VALLEY  CLEAR     50  37  62 E3        29.91S
WENDOVER       CLEAR     55  22  27 NW13      29.90R
HEBER CITY     CLOUDY    43  28  56 E5        29.89S
WEST JORDAN    PTCLDY    49  43  80 CALM      29.91S

$$

UTZ011>015-024>027-260300-

CENTRAL/NORTHEAST UTAH

CITY           SKY/WX    TMP DP  RH WIND       PRES   REMARKS
PROVO AIRPORT  PTCLDY    47  33  58 NW14      29.91F
MOAB/CANYONLAN PTCLDY    53  29  39 E6        29.77R
DELTA          CLEAR     50  23  34 NW10      29.91R
PRICE          PTCLDY    45  26  47 NW12      29.86R
ROOSEVELT      CLOUDY    52  28  40 N14G22    29.81R
VERNAL         CLOUDY    51  28  41 N8        29.78R

$$

UTZ013>016-019>022-027-260300-

SOUTHERN UTAH

CITY           SKY/WX    TMP DP  RH WIND       PRES   REMARKS
BRYCE CANYON   CLEAR     40  16  37 N13       29.91S WCI  32
CEDAR CITY     CLEAR     48  20  32 N8        29.90R
MILFORD        CLEAR     52  20  28 NE16G23   29.90R
ST GEORGE      CLOUDY    66  22  18 N12       29.84R
HANKSVILLE     CLEAR     55  21  26 NW18G25   29.82R
BLANDING       PTCLDY    49  21  33 N13       29.87R

$$

REGIONAL REPORTS     COLORADO/ARIZONA

CITY           SKY/WX    TMP DP  RH WIND       PRES   REMARKS
CRAIG, CO      CLOUDY    39  33  79 SW7       29.81R WCI  34
GRAND JUNCTION CLOUDY    46  38  73 NE7       29.80R
RIFLE, CO      CLOUDY    44  32  62 W6        29.80R
MONTROSE, CO   CLOUDY    42  31  64 N3        29.81R
CORTEZ, CO     PTCLDY    45  26  47 NW16G24   29.79R
COLORADO CITY    N/A     55  21  26 NW14      29.91R
PAGE, AZ       CLEAR     59  20  22 W8G17     29.80R
GRAND CANYON   PTCLDY    49  20  31 NW15G22   29.88R
KINGMAN, AZ    CLEAR     66  20  17 N15       29.83R
FLAGSTAFF, AZ  CLEAR     48  13  24 VRB6G23   29.89R

$$

REGIONAL REPORTS    NEVADA/IDAHO/WYOMING

CITY           SKY/WX    TMP DP  RH WIND       PRES   REMARKS
LAS VEGAS, NV  PTCLDY    75  15  10 N15       29.77R
ELY, NY        CLEAR     46  20  35 NW9       29.96R
ELKO, NV       CLEAR     49  25  39 W8        29.95S
POCATELLO, ID  CLOUDY    48  33  56 SW17      29.86R
BURLEY, ID     MOCLDY    49  27  42 W17G23    29.87R
FORT BRIDGER,  MOCLDY    38  33  81 W18       29.91R WCI  28
EVANSTON, WY   CLOUDY    38  28  67 W13       29.91R WCI  30
ROCK SPRINGS,  PTCLDY    36  28  73 E3        29.85R
KEMMERER, WY   FLURRIES  34  32  93 W18G29    29.87R WCI  23

$$




USA.gov is the U.S. government's official web portal to all federal, state and local government web resources and services.